Wind_Speed
76 76 77 77 78 78 79 79 80 81 82 83 84 85 85 85 86 87 87 87 87 87 87 87 87 87 87 87 87 87 87 87 88 88 88 88 88 88 88 88 89 89 89 89 90 90 90 90 90 90 89 89
78 79 80 80 81 81 82 83 83 84 85 86 87 88 89 89 90 91 91 91 91 91 91 91 91 91 91 91 91 91 91 91 91 91 91 91 92 92 91 91 91 92 93 93 93 93 94 94 94 94 94 93
81 82 83 83 84 84 85 85 86 87 87 88 89 90 91 91 92 93 94 94 94 94 95 95 95 94 95 95 95 95 94 94 94 94 95 95 95 95 95 95 94 95 96 96 95 95 96 96 97 97 97 97
84 85 85 86 87 87 87 88 88 89 90 90 91 92 93 93 94 95 96 96 96 97 97 97 97 97 97 97 97 98 98 98 98 98 98 98 98 99 99 98 98 98 98 98 98 98 98 98 98 98 99 99
87 87 88 89 89 90 90 91 91 91 92 93 93 94 94 95 96 97 97 98 98 99 99 99 99 99 99 100 100 100 101 101 101 101 101 101 101 102 101 101 101 101 101 101 101 101 100 100 100 100 100 101
89 90 91 92 92 93 93 94 94 94 95 95 96 96 97 97 98 99 99 100 101 101 102 102 102 102 102 102 102 103 103 103 103 103 103 103 104 104 103 104 104 103 103 103 103 103 103 103 102 102 102 102
90 91 92 93 94 95 96 97 97 98 98 99 99 99 100 100 101 101 102 102 103 104 104 105 105 106 106 106 106 106 106 106 106 105 105 105 105 105 105 105 105 105 105 105 105 104 105 104 104 104 104 104
91 92 92 93 95 96 97 98 99 100 100 101 102 102 103 103 103 104 104 104 105 105 106 106 107 107 107 107 107 107 107 106 106 106 106 106 106 106 106 106 106 106 106 106 106 106 105 105 106 106 106 106
94 95 95 95 96 97 98 99 100 101 102 103 103 104 105 105 106 106 107 107 107 107 107 108 108 108 108 108 109 109 108 108 108 107 107 107 107 107 107 107 108 108 108 108 108 108 108 108 108 108 108 108
98 98 98 99 100 100 101 102 103 103 104 105 106 107 107 108 109 109 110 110 111 111 111 111 111 111 111 111 112 112 112 112 112 112 112 111 111 110 110 110 110 110 110 110 111 111 111 111 111 111 111 111
100 101 102 102 103 103 104 105 106 107 107 108 109 110 110 111 112 112 113 113 114 114 114 115 115 115 115 115 115 116 116 116 117 117 117 117 116 116 115 115 114 114 114 114 114 114 114 114 115 115 115 115
103 104 104 105 106 107 107 108 109 109 110 111 111 112 113 113 114 115 115 116 116 117 117 118 118 119 119 119 119 120 120 120 120 120 121 121 121 121 121 120 120 119 119 119 118 118 117 117 117 117 118 118
106 106 107 108 109 110 110 111 112 112 113 113 114 114 115 115 116 117 117 118 118 119 119 120 120 121 122 122 123 123 124 124 124 124 124 124 125 125 125 125 125 125 124 124 123 123 123 122 121 121 121 121
110 110 111 112 112 113 114 114 115 116 117 117 118 118 119 119 120 120 121 121 121 122 122 122 123 123 123 124 124 125 126 126 127 127 128 128 128 128 129 129 129 129 129 129 129 128 128 128 127 127 126 125
114 115 115 116 117 117 118 119 119 120 121 122 122 123 123 124 124 125 125 125 126 126 126 126 126 127 127 127 127 127 127 128 128 129 130 130 131 131 131 131 131 132 132 132 132 132 131 131 131 130 130 130
117 118 119 120 120 121 122 123 123 124 125 126 126 127 128 128 129 129 130 130 130 131 131 131 131 131 131 131 131 131 131 131 131 131 132 132 132 133 133 133 133 133 133 134 134 134 133 133 133 133 132 132
121 122 122 123 124 125 125 126 127 128 129 130 130 131 132 132 133 133 134 134 135 135 135 136 136 136 136 135 135 135 136 136 136 136 136 136 135 136 136 136 136 136 136 136 137 137 137 136 136 135 135 135
125 126 127 127 128 129 129 130 131 131 132 133 134 135 135 136 137 137 138 138 138 139 139 140 140 140 140 140 140 140 140 140 140 140 140 140 140 140 140 140 140 140 140 140 140 141 141 140 140 140 139 139
129 129 130 131 132 133 133 134 135 136 136 137 138 139 139 140 141 141 141 142 143 143 144 144 144 144 145 145 145 145 145 145 145 144 144 144 144 144 144 144 144 144 144 144 144 144 144 144 144 144 143 143
131 132 133 134 135 136 136 137 138 139 140 141 142 143 143 144 145 145 146 146 147 147 148 148 149 149 149 150 150 150 150 150 150 149 149 149 149 148 148 149 148 148 148 148 148 148 148 148 148 148 148 147
134 135 136 137 137 138 139 140 141 142 143 144 145 145 146 147 148 149 149 150 151 152 152 153 153 154 154 154 155 155 155 155 155 155 154 154 154 153 153 153 153 153 152 152 151 151 152 152 152 152 151 151
135 136 137 139 140 141 142 143 144 145 146 147 148 149 149 150 151 151 152 153 154 155 156 156 157 158 159 159 159 160 160 160 160 160 160 159 159 159 159 158 158 157 157 156 156 155 156 156 156 156 155 155
130 132 133 135 136 138 139 141 142 144 146 147 149 150 151 152 153 154 155 156 157 158 158 159 160 160 161 162 163 164 164 165 165 165 165 165 164 164 164 164 163 163 162 161 161 160 160 160 160 160 160 160
123 125 126 128 129 131 132 134 136 137 139 141 143 145 146 148 150 152 154 156 157 159 160 161 162 163 164 165 166 166 167 168 168 169 169 169 169 169 169 169 169 168 167 166 165 165 164 164 164 165 165 164
118 119 121 123 124 126 127 129 130 132 133 135 136 138 139 141 143 145 147 149 151 153 155 157 159 162 164 166 167 169 170 171 171 172 172 172 173 173 173 173 173 173 172 170 169 169 168 168 168 169 169 168
112 113 115 117 119 120 122 123 125 127 128 130 131 133 134 136 137 139 141 142 144 146 147 149 152 154 157 159 162 164 167 169 171 173 174 175 175 176 176 176 176 176 176 175 173 173 172 172 172 172 172 171
105 107 109 111 112 114 116 117 119 120 122 123 125 126 127 129 131 133 135 137 138 140 142 144 146 148 150 152 154 157 159 162 164 167 169 172 173 175 177 178 179 179 179 178 177 176 175 175 176 176 176 175
99 100 102 104 106 108 110 111 113 115 117 118 119 120 121 122 124 126 128 129 131 133 134 137 139 141 144 146 148 150 152 155 157 159 161 164 166 168 170 173 175 177 179 180 180 180 179 179 179 179 179 179
97 98 98 100 101 102 103 105 107 109 110 112 114 115 116 117 119 121 123 124 126 127 128 130 132 134 137 139 142 144 146 148 151 153 155 157 159 161 162 164 167 170 172 174 175 177 178 179 180 181 182 183
97 98 98 99 100 101 101 102 103 104 105 107 108 109 110 112 113 115 118 120 121 122 123 125 127 129 131 133 136 138 140 142 144 146 148 150 152 154 156 157 159 162 164 167 168 170 171 173 175 177 179 180
97 98 98 99 100 100 101 102 103 103 104 105 106 106 107 108 109 111 113 114 116 117 118 120 122 124 126 128 130 133 135 137 139 141 143 144 146 147 149 151 152 154 157 160 162 163 165 166 168 170 172 174
Wind_Direction
257 257 256 255 255 254 254 253 252 252 251 251 251 252 252 252 252 252 252 253 253 253 252 252 252 252 252 252 251 251 251 252 252 253 253 254 254 254 254 254 255 256 256 256 257 257 257 258 258 258 259 259
256 256 256 255 255 254 254 253 253 253 253 253 253 253 253 254 254 254 254 254 254 254 254 253 253 253 253 252 252 252 252 252 253 253 253 254 254 254 254 254 254 255 256 256 256 257 257 257 258 258 258 259
255 255 255 256 256 255 254 254 253 253 253 253 253 253 253 253 253 253 253 253 253 254 254 253 253 253 253 253 253 253 253 253 253 253 253 254 254 254 254 254 254 254 255 255 255 256 256 257 257 258 258 258
254 255 255 255 256 256 256 255 255 254 254 254 253 253 253 253 252 252 252 252 252 253 253 253 253 252 252 252 253 253 253 253 253 253 253 253 253 254 254 254 254 254 254 254 255 255 255 256 256 257 257 258
254 254 254 254 255 255 255 255 255 255 255 255 255 254 254 254 254 253 253 253 252 252 252 252 252 252 252 252 252 252 253 253 253 253 253 253 253 253 254 254 254 254 254 254 254 255 255 255 255 256 256 257
255 254 254 254 254 254 254 254 254 254 255 255 255 255 255 255 255 255 254 254 254 253 253 253 252 252 252 252 251 251 252 252 252 252 253 253 253 253 253 253 254 254 254 254 255 255 255 255 255 255 255 256
257 257 257 256 256 256 255 255 255 254 254 254 254 254 254 254 255 255 255 255 255 255 255 255 254 254 254 254 253 253 253 253 253 253 253 253 253 253 253 253 253 253 254 254 254 255 255 255 255 255 255 255
258 258 258 259 259 258 258 258 257 257 256 256 256 256 255 255 255 255 255 255 255 256 256 256 256 256 256 255 255 255 255 254 254 254 254 254 253 253 253 253 253 253 253 253 253 254 254 254 255 255 255 255
259 259 259 259 259 259 259 259 259 259 259 258 258 258 257 257 257 257 256 256 256 256 256 256 256 256 256 256 255 255 254 254 254 254 254 254 255 255 255 255 254 254 253 253 253 253 253 253 254 254 254 254
261 261 260 260 259 259 259 259 259 259 259 259 258 258 258 258 258 257 257 257 257 257 257 257 256 256 256 256 256 255 255 254 254 254 254 254 254 254 254 255 255 255 255 254 254 253 253 253 253 253 253 254
264 263 263 262 262 261 261 260 260 259 259 259 259 258 258 258 258 257 257 257 257 257 256 256 256 256 256 256 256 256 256 255 255 254 254 253 253 253 253 253 254 254 255 255 255 254 254 253 253 253 253 253
265 265 265 264 264 264 263 263 263 262 262 261 261 260 260 260 259 259 258 258 257 257 257 256 256 256 256 256 255 255 256 256 256 255 255 254 254 254 254 253 253 253 253 254 254 254 254 254 254 254 254 254
266 265 265 265 265 265 265 264 264 264 264 264 263 263 263 262 262 262 261 260 259 259 258 258 257 257 257 256 256 256 255 255 255 255 255 255 255 255 254 254 254 254 254 253 254 254 254 254 254 254 254 254
267 266 266 266 266 265 265 265 265 264 264 264 264 264 264 264 264 264 263 263 262 262 261 260 260 259 258 258 257 257 256 256 256 255 255 255 255 255 255 255 255 255 255 255 254 254 254 255 254 254 254 254
267 267 267 266 266 266 266 265 265 265 264 264 264 264 263 263 263 263 263 263 263 263 263 262 262 261 261 260 259 259 258 258 257 256 256 256 256 255 255 255 255 255 256 256 256 255 255 255 255 255 255 254
267 267 267 266 266 266 266 266 266 265 265 265 264 264 264 263 263 263 262 262 262 262 262 262 262 262 261 261 261 260 260 259 259 258 257 257 257 256 256 256 256 256 256 256 256 256 256 256 255 255 255 255
267 267 266 266 266 266 266 266 266 266 265 265 265 265 264 264 264 263 263 263 262 262 262 261 261 261 261 260 260 260 260 260 260 259 259 258 258 257 257 257 257 257 256 256 257 257 257 257 256 256 256 256
267 267 267 267 266 266 266 266 266 265 265 265 265 265 265 265 265 264 264 264 263 263 262 262 262 261 261 260 260 260 259 259 259 259 259 259 258 258 257 257 257 257 257 256 256 257 257 257 257 257 257 256
268 268 268 267 267 267 267 266 266 266 265 265 265 265 265 265 264 264 264 264 264 264 263 263 263 262 262 261 261 260 260 259 259 259 258 258 258 258 258 258 257 257 257 256 256 256 256 256 256 256 256 257
269 268 268 268 268 267 267 267 267 266 266 265 265 265 265 264 264 264 264 264 264 264 263 263 263 263 262 262 262 261 261 260 260 259 259 258 258 258 258 258 258 257 257 257 256 256 256 256 256 256 256 256
269 269 268 268 268 268 267 267 267 267 266 266 266 265 265 265 264 264 264 264 264 263 263 263 263 263 262 262 262 262 261 261 261 260 260 259 259 258 258 258 258 258 257 257 257 257 257 256 256 256 255 255
269 269 269 268 268 267 267 267 267 266 266 266 266 265 265 265 265 264 264 264 264 264 263 263 263 263 262 262 262 262 261 261 261 261 260 260 260 259 258 258 258 258 257 257 257 257 257 257 257 256 256 256
270 270 269 269 268 268 267 267 267 266 266 266 265 265 265 265 264 264 264 264 264 264 263 263 263 263 262 262 262 262 261 261 261 261 260 260 260 259 259 258 258 258 257 257 257 257 257 257 257 257 257 256
271 270 270 269 269 268 268 268 267 267 267 266 266 266 265 265 265 264 264 264 264 263 263 263 263 263 262 262 262 262 262 261 261 261 260 260 260 259 259 259 258 258 257 257 257 257 257 257 257 257 257 256
272 271 271 270 270 269 269 269 268 268 267 267 267 267 266 266 266 265 265 265 264 264 264 263 263 263 262 262 262 262 262 261 261 261 261 260 260 260 259 259 259 258 257 257 257 257 257 257 257 256 256 256
274 274 273 272 272 271 271 270 269 269 269 268 268 268 267 267 267 267 266 266 266 265 265 264 264 264 263 263 262 262 262 261 261 261 261 261 260 260 260 260 259 259 258 257 257 256 256 256 256 256 256 256
276 276 275 275 274 274 273 272 272 271 270 270 269 269 268 268 268 268 267 267 267 266 266 266 266 265 265 264 264 263 263 262 262 261 261 261 260 260 260 260 260 259 259 258 258 257 256 256 256 256 256 256
276 276 276 275 275 274 274 273 273 273 272 272 271 271 270 270 269 269 268 268 267 267 267 266 266 266 266 265 265 264 264 263 263 262 262 261 261 260 260 260 260 259 259 259 258 258 257 257 256 256 256 256
279 278 277 277 276 275 275 274 273 273 273 272 272 271 271 270 270 270 270 269 269 268 268 267 267 267 266 266 266 265 265 264 264 264 263 262 262 261 261 260 260 260 259 259 258 258 258 257 257 256 256 256
283 282 281 280 280 279 278 277 276 276 275 274 273 272 271 271 270 270 269 269 269 268 268 268 267 267 267 267 266 266 266 265 265 264 264 263 263 262 262 261 261 260 260 259 259 258 257 257 257 256 256 256
285 284 284 283 282 282 281 281 280 279 279 278 277 276 276 275 274 273 272 271 270 269 269 268 267 267 266 266 266 266 266 266 265 265 265 265 264 264 263 262 262 261 261 260 259 259 258 257 256 256 256 256
Height
10732 10732 10732 10733 10733 10733 10735 10736 10737 10738 10739 10740 10740 10741 10742 10743 10743 10743 10742 10742 10743 10743 10743 10743 10744 10744 10744 10744 10744 10745 10745 10746 10746 10747 10747 10748 10748 10750 10752 10753 10753 10753 10755 10756 10757 10758 10758 10759 10760 10761 10762 10764
10723 10723 10723 10722 10723 10723 10725 10725 10726 10727 10728 10730 10731 10731 10733 10734 10734 10734 10734 10734 10734 10734 10734 10735 10735 10735 10735 10735 10736 10736 10736 10737 10738 10738 10738 10739 10739 10740 10741 10744 10744 10744 10745 10747 10748 10749 10750 10751 10751 10752 10753 10755
10714 10714 10713 10713 10713 10713 10714 10715 10715 10716 10717 10719 10719 10720 10721 10722 10722 10722 10722 10723 10723 10723 10723 10724 10725 10725 10725 10726 10726 10726 10726 10727 10728 10728 10729 10729 10729 10730 10731 10733 10735 10735 10735 10736 10738 10739 10740 10742 10742 10743 10744 10746
10705 10705 10705 10704 10704 10704 10705 10705 10706 10706 10707 10708 10708 10709 10709 10710 10710 10710 10710 10711 10711 10711 10711 10712 10713 10714 10715 10715 10715 10715 10715 10716 10718 10718 10719 10719 10719 10719 10720 10721 10723 10725 10726 10726 10727 10728 10730 10732 10733 10734 10735 10736
10696 10696 10695 10695 10694 10694 10695 10695 10696 10696 10696 10697 10698 10698 10699 10699 10699 10699 10699 10699 10699 10700 10700 10700 10700 10701 10702 10703 10703 10703 10703 10704 10705 10707 10707 10708 10708 10708 10709 10710 10711 10713 10715 10716 10716 10717 10718 10720 10722 10723 10725 10726
10687 10687 10686 10685 10685 10684 10684 10685 10685 10685 10686 10686 10687 10688 10688 10689 10689 10689 10689 10689 10689 10689 10688 10688 10688 10689 10689 10690 10690 10690 10691 10691 10692 10694 10695 10696 10696 10697 10698 10699 10699 10701 10703 10704 10705 10706 10707 10708 10710 10712 10714 10715
10678 10677 10677 10676 10675 10674 10674 10674 10674 10674 10674 10675 10675 10676 10677 10677 10678 10678 10678 10678 10678 10678 10678 10677 10677 10677 10677 10677 10678 10678 10679 10679 10680 10681 10682 10684 10684 10685 10686 10687 10688 10689 10690 10692 10694 10695 10696 10697 10698 10700 10702 10704
10668 10667 10666 10665 10664 10664 10663 10663 10663 10663 10663 10663 10663 10664 10664 10665 10665 10665 10665 10665 10665 10665 10665 10666 10666 10666 10666 10666 10666 10666 10667 10667 10668 10669 10670 10671 10672 10673 10673 10675 10676 10677 10678 10680 10681 10683 10684 10686 10687 10688 10690 10692
10657 10656 10655 10654 10653 10652 10652 10651 10651 10651 10651 10651 10651 10651 10652 10652 10652 10652 10653 10652 10653 10652 10652 10653 10653 10653 10653 10654 10654 10654 10654 10655 10656 10656 10657 10659 10660 10661 10662 10663 10664 10665 10666 10667 10669 10670 10672 10674 10675 10677 10678 10680
10645 10645 10644 10643 10642 10641 10640 10639 10639 10639 10638 10638 10638 10638 10638 10638 10639 10639 10639 10639 10640 10639 10639 10639 10639 10640 10640 10641 10641 10641 10642 10642 10643 10644 10644 10645 10647 10648 10650 10650 10651 10653 10654 10655 10656 10658 10660 10661 10663 10665 10666 10667
10633 10632 10632 10631 10630 10629 10628 10627 10627 10626 10626 10625 10625 10625 10624 10624 10624 10625 10625 10625 10626 10626 10626 10626 10626 10626 10627 10627 10627 10628 10628 10628 10629 10630 10631 10631 10632 10634 10636 10637 10638 10639 10640 10642 10643 10645 10646 10648 10650 10651 10653 10655
10621 10620 10619 10618 10618 10617 10616 10615 10614 10613 10613 10612 10612 10611 10611 10610 10610 10610 10610 10611 10611 10612 10612 10612 10612 10612 10613 10613 10613 10614 10614 10615 10615 10615 10616 10617 10618 10619 10620 10622 10623 10625 10626 10627 10629 10630 10632 10634 10636 10638 10639 10641
10609 10608 10607 10606 10605 10604 10603 10602 10601 10600 10599 10599 10598 10597 10597 10596 10596 10595 10595 10596 10596 10596 10597 10597 10597 10597 10598 10598 10599 10599 10600 10601 10601 10601 10602 10603 10604 10604 10605 10606 10607 10609 10610 10612 10614 10616 10617 10618 10621 10623 10625 10626
10597 10595 10594 10592 10591 10590 10589 10588 10587 10586 10586 10585 10584 10583 10582 10581 10581 10580 10580 10580 10580 10580 10580 10581 10581 10581 10582 10582 10583 10584 10584 10585 10586 10586 10586 10588 10589 10589 10590 10591 10592 10594 10595 10596 10598 10600 10602 10602 10604 10607 10609 10611
10583 10582 10580 10578 10577 10576 10575 10573 10572 10571 10570 10569 10569 10568 10567 10566 10565 10565 10564 10564 10564 10563 10563 10564 10564 10564 10565 10565 10566 10567 10567 10568 10569 10570 10570 10571 10572 10573 10574 10575 10576 10578 10579 10580 10581 10584 10586 10587 10588 10590 10592 10594
10570 10568 10566 10564 10563 10561 10560 10558 10557 10555 10554 10553 10552 10551 10550 10549 10549 10548 10548 10547 10547 10546 10546 10546 10546 10546 10547 10547 10548 10549 10550 10550 10551 10553 10554 10555 10556 10556 10557 10558 10559 10561 10563 10564 10564 10567 10569 10571 10573 10574 10575 10577
10556 10554 10552 10550 10548 10546 10545 10543 10541 10539 10538 10536 10535 10533 10532 10531 10531 10530 10530 10530 10529 10529 10528 10528 10528 10528 10529 10529 10530 10530 10531 10532 10533 10534 10535 10536 10538 10539 10540 10541 10542 10544 10546 10547 10548 10549 10551 10553 10556 10557 10559 10561
10540 10538 10536 10534 10532 10530 10529 10527 10525 10523 10521 10519 10517 10515 10514 10513 10512 10512 10511 10511 10510 10510 10509 10509 10509 10509 10510 10510 10510 10511 10512 10513 10514 10515 10516 10517 10519 10520 10522 10523 10524 10525 10528 10530 10531 10532 10533 10535 10537 10539 10542 10544
10524 10521 10519 10517 10515 10513 10511 10509 10507 10505 10503 10501 10499 10497 10496 10495 10494 10493 10492 10491 10490 10489 10489 10489 10489 10489 10489 10489 10489 10489 10490 10492 10494 10495 10497 10498 10499 10500 10501 10503 10505 10507 10509 10511 10513 10514 10515 10516 10518 10520 10523 10524
10507 10504 10502 10500 10497 10495 10493 10491 10489 10486 10484 10482 10480 10478 10477 10475 10474 10474 10473 10472 10470 10469 10468 10468 10468 10468 10468 10468 10467 10467 10468 10469 10472 10474 10476 10477 10479 10481 10481 10482 10484 10486 10489 10492 10493 10494 10496 10497 10498 10501 10503 10504
10489 10486 10484 10481 10479 10477 10474 10472 10470 10467 10465 10462 10460 10459 10457 10455 10454 10454 10453 10451 10449 10448 10447 10447 10446 10446 10446 10446 10446 10446 10446 10447 10448 10451 10453 10454 10456 10458 10460 10461 10462 10465 10468 10471 10473 10474 10475 10476 10478 10480 10482 10484
10470 10467 10465 10462 10460 10458 10455 10452 10450 10448 10445 10442 10440 10439 10437 10435 10434 10433 10432 10429 10427 10426 10426 10425 10424 10424 10423 10423 10423 10423 10423 10423 10425 10427 10429 10431 10432 10433 10436 10439 10440 10442 10445 10449 10452 10453 10454 10455 10456 10458 10459 10462
10450 10448 10445 10443 10440 10438 10435 10432 10430 10427 10425 10422 10420 10418 10416 10415 10413 10412 10410 10408 10406 10405 10404 10403 10402 10401 10400 10400 10399 10399 10399 10399 10400 10402 10404 10405 10407 10408 10410 10413 10416 10419 10422 10426 10429 10431 10432 10433 10434 10435 10436 10438
10431 10429 10426 10423 10420 10418 10415 10412 10409 10407 10404 10401 10399 10397 10395 10393 10392 10390 10388 10386 10384 10383 10382 10380 10379 10378 10377 10376 10375 10375 10374 10375 10375 10377 10378 10379 10381 10382 10384 10386 10389 10394 10399 10403 10406 10407 10410 10411 10411 10412 10413 10415
10414 10410 10407 10404 10400 10398 10395 10393 10389 10387 10384 10381 10379 10377 10375 10372 10370 10368 10366 10365 10363 10361 10360 10358 10356 10355 10354 10352 10351 10351 10350 10350 10350 10351 10352 10353 10354 10356 10358 10359 10360 10366 10372 10377 10381 10384 10387 10387 10386 10387 10389 10392
10397 10393 10389 10385 10382 10378 10376 10373 10370 10367 10364 10362 10360 10358 10356 10353 10350 10347 10345 10343 10341 10339 10338 10336 10333 10332 10331 10329 10328 10327 10326 10326 10326 10326 10327 10327 10329 10330 10331 10333 10334 10336 10342 10349 10355 10360 10363 10364 10360 10362 10366 10368
10380 10376 10372 10368 10364 10360 10357 10354 10350 10347 10345 10342 10340 10339 10336 10334 10330 10327 10325 10323 10321 10319 10317 10314 10311 10309 10307 10305 10304 10303 10302 10301 10301 10301 10301 10302 10303 10304 10305 10306 10307 10309 10312 10318 10326 10331 10337 10340 10337 10336 10341 10345
10365 10361 10357 10352 10348 10344 10340 10337 10333 10329 10326 10324 10321 10319 10317 10315 10311 10307 10305 10303 10301 10299 10297 10294 10291 10287 10284 10282 10280 10279 10278 10276 10275 10276 10276 10276 10277 10279 10279 10280 10281 10281 10283 10289 10295 10301 10306 10312 10315 10313 10314 10318
10349 10346 10341 10337 10332 10328 10325 10321 10317 10313 10310 10306 10304 10301 10299 10297 10293 10288 10285 10282 10281 10279 10278 10275 10271 10267 10263 10260 10258 10256 10255 10252 10251 10251 10250 10250 10251 10253 10254 10256 10256 10254 10255 10260 10265 10272 10277 10281 10286 10288 10291 10292
10333 10329 10325 10320 10316 10312 10308 10304 10301 10297 10293 10289 10286 10283 10281 10279 10275 10270 10266 10263 10261 10259 10258 10255 10251 10247 10243 10240 10237 10234 10233 10230 10228 10228 10226 10226 10226 10227 10228 10230 10232 10230 10230 10232 10234 10242 10249 10252 10255 10260 10265 10265
10318 10313 10309 10304 10299 10295 10292 10288 10284 10280 10276 10272 10268 10265 10262 10260 10256 10252 10247 10244 10241 10239 10237 10235 10231 10227 10223 10220 10216 10213 10212 10209 10207 10206 10204 10203 10203 10203 10204 10205 10206 10207 10206 10205 10205 10211 10219 10224 10228 10232 10236 10236